FW9496 Weather Reports


time (UTC)temp
F
wind
direction
speed
knots
gust
knots
rain 1hr
in
rain 24hr
in
rain mn
in
humidity
%
barometer
mb
20260504232229 67 56 10.4 18.2 0.00 0.00 0.00 18 1001.5
20260504231002 68 34 9.6 16.5 0.00 0.00 0.00 17 1001.5
20260504230501 68 300 9.6 17.4 0.00 0.00 0.00 17 1001.5
20260504230001 68 338 7.8 17.4 0.00 0.00 0.00 16 1001.5
20260504225502 69 25 6.1 16.5 0.00 0.00 0.00 16 1001.5
20260504225003 69 310 5.2 11.3 0.00 0.00 0.00 16 1001.4
20260504224502 69 301 6.1 13.0 0.00 0.00 0.00 16 1001.4
20260504224001 69 20 7.0 13.9 0.00 0.00 0.00 16 1001.7
20260504223501 69 303 6.1 13.9 0.00 0.00 0.00 15 1001.5
20260504223003 69 318 5.2 13.0 0.00 0.00 0.00 16 1001.5
20260504222501 68 314 7.8 17.4 0.00 0.00 0.00 16 1001.7
20260504222449 68 92 9.6 19.1 0.00 0.00 0.00 15 1001.7
20260504221503 69 297 7.8 19.1 0.00 0.00 0.00 16 1001.7
20260504221001 69 55 6.1 12.2 0.00 0.00 0.00 17 1001.8
20260504220501 69 333 7.8 13.0 0.00 0.00 0.00 17 1001.8
20260504220001 69 314 7.8 13.0 0.00 0.00 0.00 17 1001.9
20260504215504 68 24 5.2 10.4 0.00 0.00 0.00 18 1002.0
20260504215230 67 291 5.2 11.3 0.00 0.00 0.00 17 1002.0
20260504214501 67 55 6.1 11.3 0.00 0.00 0.00 18 1002.2
20260504214003 66 351 6.1 13.9 0.00 0.00 0.00 18 1002.3
20260504213501 66 22 6.1 13.9 0.00 0.00 0.00 18 1002.5
20260504213002 67 311 8.7 15.6 0.00 0.00 0.00 17 1002.5
20260504212504 68 325 7.0 15.6 0.00 0.00 0.00 16 1002.6
20260504212005 69 38 3.5 10.4 0.00 0.00 0.00 16 1002.6
20260504211502 68 217 4.3 17.4 0.00 0.00 0.00 17 1002.6
20260504211004 68 282 7.0 17.4 0.00 0.00 0.00 16 1002.6
20260504210502 67 53 8.7 18.2 0.00 0.00 0.00 16 1002.8
20260504210004 67 302 7.8 18.2 0.00 0.00 0.00 16 1002.8
20260504205728 67 347 5.2 12.2 0.00 0.00 0.00 17 1002.9
20260504205001 66 260 7.0 13.9 0.00 0.00 0.00 16 1002.9
20260504204504 67 296 6.1 13.9 0.00 0.00 0.00 15 1003.0
20260504204003 67 294 6.1 12.2 0.00 0.00 0.00 16 1003.0
20260504203501 68 292 7.8 13.0 0.00 0.00 0.00 15 1003.1
20260504203001 68 311 7.8 13.0 0.00 0.00 0.00 16 1003.1
20260504202503 67 290 6.1 12.2 0.00 0.00 0.00 17 1003.1
20260504202001 68 252 5.2 13.9 0.00 0.00 0.00 16 1003.2
20260504201501 67 319 4.3 13.9 0.00 0.00 0.00 16 1003.4
20260504201001 67 257 4.3 10.4 0.00 0.00 0.00 17 1003.4
20260504200502 66 28 5.2 10.4 0.00 0.00 0.00 17 1003.6
20260504200225 66 74 6.1 10.4 0.00 0.00 0.00 17 1003.6
20260504195501 66 319 6.1 11.3 0.00 0.00 0.00 17 1003.7
20260504195003 67 310 7.0 11.3 0.00 0.00 0.00 17 1003.7
20260504194501 67 334 6.1 11.3 0.00 0.00 0.00 17 1003.6
20260504194227 67 321 5.2 11.3 0.00 0.00 0.00 17 1003.8
20260504193502 67 259 5.2 11.3 0.00 0.00 0.00 17 1003.7
20260504193000 66 304 5.2 11.3 0.00 0.00 0.00 18 1004.0
20260504192501 66 291 4.3 11.3 0.00 0.00 0.00 18 1004.0
20260504192001 65 333 5.2 12.2 0.00 0.00 0.00 18 1004.1
20260504191504 65 294 7.0 12.2 0.00 0.00 0.00 18 1004.2
20260504191227 65 306 6.1 13.0 0.00 0.00 0.00 17 1004.2
20260504190500 66 39 7.0 13.9 0.00 0.00 0.00 18 1004.2
20260504190002 66 337 7.8 13.9 0.00 0.00 0.00 18 1004.4
20260504185500 67 341 5.2 13.0 0.00 0.00 0.00 18 1004.4
20260504185000 66 315 3.5 10.4 0.00 0.00 0.00 18 1004.4
20260504184503 66 233 3.5 10.4 0.00 0.00 0.00 19 1004.7
20260504184209 65 266 5.2 10.4 0.00 0.00 0.00 19 1004.8
20260504183001 65 250 6.1 12.2 0.00 0.00 0.00 19 1004.8
20260504182731 64 296 6.1 12.2 0.00 0.00 0.00 19 1004.9
20260504182000 65 325 4.3 10.4 0.00 0.00 0.00 19 1005.0
20260504181500 65 267 3.5 12.2 0.00 0.00 0.00 18 1005.0
20260504181002 65 342 2.6 12.2 0.00 0.00 0.00 20 1005.0
20260504180727 65 271 2.6 7.8 0.00 0.00 0.00 20 1005.2
20260504180118 64 163 3.5 7.8 0.00 0.00 0.00 20 1005.3
20260504175502 64 269 2.6 7.8 0.00 0.00 0.00 20 1005.3
20260504175001 64 315 2.6 7.8 0.00 0.00 0.00 21 1005.4
20260504174500 64 340 4.3 8.7 0.00 0.00 0.00 21 1005.4
20260504174000 64 82 3.5 8.7 0.00 0.00 0.00 21 1005.5
20260504173500 64 40 1.7 5.2 0.00 0.00 0.00 21 1005.7
20260504173452 65 142 1.7 7.0 0.00 0.00 0.00 23 1005.5
20260504172500 64 233 3.5 7.0 0.00 0.00 0.00 23 1005.7
20260504172001 63 62 3.5 7.0 0.00 0.00 0.00 24 1005.7
20260504171731 63 78 3.5 9.6 0.00 0.00 0.00 23 1005.7
20260504171001 63 171 4.3 9.6 0.00 0.00 0.00 24 1005.8
20260504170500 64 254 5.2 9.6 0.00 0.00 0.00 24 1005.8
20260504151004 50 53 6.1 7.8 0.00 0.00 0.00 40 1006.6
20260504150504 49 40 6.1 8.7 0.00 0.00 0.00 41 1006.5
20260504141005 44 82 0.9 3.5 0.00 0.00 0.00 48 1007.0
20260504140502 43 59 0.9 5.2 0.00 0.00 0.00 50 1007.0
20260504130204 37 16 1.7 4.3 0.00 0.00 0.00 59 1006.6
20260504110159 39 90 0.0 1.7 0.00 0.00 0.00 55 1006.5
20260504100409 41 320 0.0 0.9 0.00 0.00 0.00 49 1006.5
20260504081901 44 230 0.9 4.3 0.00 0.00 0.00 43 1007.2
20260504081402 44 223 0.9 4.3 0.00 0.00 0.00 43 1007.3
20260504080901 44 238 1.7 4.3 0.00 0.00 0.00 43 1007.2
20260504080404 44 240 1.7 4.3 0.00 0.00 0.00 42 1007.2
20260504070400 46 266 0.0 0.0 0.00 0.00 0.00 40 1007.3
20260504050403 50 71 1.7 4.3 0.00 0.00 0.00 32 1007.6
20260504045901 51 55 2.6 4.3 0.00 0.00 0.00 31 1007.6
20260504045402 51 85 2.6 4.3 0.00 0.00 0.00 31 1007.6
20260504044904 52 76 2.6 4.3 0.00 0.00 0.00 30 1007.7
20260504044402 52 98 2.6 4.3 0.00 0.00 0.00 29 1007.7
20260504043902 53 90 2.6 5.2 0.00 0.00 0.00 29 1007.7
20260504043402 53 101 2.6 5.2 0.00 0.00 0.00 28 1007.7
20260504042906 56 89 2.6 6.1 0.00 0.00 0.00 26 1007.7
20260504042402 56 309 3.5 6.1 0.00 0.00 0.00 26 1007.6
20260504041902 56 325 4.3 7.0 0.00 0.00 0.00 25 1007.6
20260504041402 56 313 4.3 7.0 0.00 0.00 0.00 25 1007.5
20260504040904 56 311 5.2 7.8 0.00 0.00 0.00 25 1007.5
20260504035902 56 292 6.1 9.6 0.00 0.00 0.00 26 1007.5
20260504035403 56 303 6.1 9.6 0.00 0.00 0.00 25 1007.5
20260504034903 56 295 7.0 9.6 0.00 0.00 0.00 25 1007.3
20260504034402 57 304 7.0 9.6 0.00 0.00 0.00 24 1007.3
20260504033903 57 302 5.2 7.8 0.00 0.00 0.00 24 1007.3
20260504033405 58 306 5.2 7.8 0.00 0.00 0.00 24 1007.3
20260504033132 58 309 4.3 7.8 0.00 0.00 0.00 24 1007.2
20260504032842 58 334 4.3 7.0 0.00 0.00 0.00 24 1007.2
20260504031402 58 306 5.2 7.0 0.00 0.00 0.00 23 1007.3
20260504030904 58 310 5.2 9.6 0.00 0.00 0.00 23 1007.1
20260504030403 58 324 5.2 9.6 0.00 0.00 0.00 23 1007.0
20260504025404 60 355 4.3 7.8 0.00 0.00 0.00 22 1007.0
20260504024902 60 334 5.2 10.4 0.00 0.00 0.00 21 1007.0
20260504024401 61 322 6.1 10.4 0.00 0.00 0.00 20 1007.0
20260504023903 62 303 7.8 11.3 0.00 0.00 0.00 20 1007.1
20260504023855 62 309 7.8 11.3 0.00 0.00 0.00 19 1006.9
20260504022903 62 302 7.0 11.3 0.00 0.00 0.00 20 1006.9
20260504022403 62 294 6.1 11.3 0.00 0.00 0.00 19 1007.0
20260504022355 62 267 5.2 10.4 0.00 0.00 0.00 20 1006.9
20260504021403 62 296 5.2 10.4 0.00 0.00 0.00 19 1006.9
20260504020903 63 290 7.0 10.4 0.00 0.00 0.00 19 1006.9
20260504020402 63 290 7.8 12.2 0.00 0.00 0.00 18 1007.0
20260504015904 63 315 8.7 12.2 0.00 0.00 0.00 18 1006.9
20260504015403 63 294 7.8 12.2 0.00 0.00 0.00 18 1006.9
20260504014901 64 310 7.8 12.2 0.00 0.00 0.00 18 1006.9
20260504014401 64 298 7.8 15.6 0.00 0.00 0.00 18 1006.9
20260504013903 64 305 7.8 15.6 0.00 0.00 0.00 17 1006.9
20260504013402 64 338 7.8 15.6 0.00 0.00 0.00 17 1006.9
20260504012901 64 5 8.7 15.6 0.00 0.00 0.00 17 1007.0
20260504011902 65 322 9.6 15.6 0.00 0.00 0.00 17 1006.7
20260504011402 65 307 10.4 16.5 0.00 0.00 0.00 17 1006.7
20260504010903 65 313 9.6 16.5 0.00 0.00 0.00 17 1006.7
20260504010404 65 315 8.7 15.6 0.00 0.00 0.00 17 1006.7
20260504005904 65 300 8.7 15.6 0.00 0.00 0.00 17 1007.0
20260504005403 65 290 9.6 18.2 0.00 0.00 0.00 17 1006.9
20260504004905 65 296 10.4 18.2 0.00 0.00 0.00 16 1006.9
20260504004404 65 311 11.3 20.0 0.00 0.00 0.00 17 1007.0
20260504003902 66 315 12.2 20.0 0.00 0.00 0.00 16 1007.0
20260504003401 67 296 10.4 19.1 0.00 0.00 0.00 16 1006.9
20260504002901 67 308 9.6 16.5 0.00 0.00 0.00 16 1006.9
20260504002402 67 315 7.8 18.2 0.00 0.00 0.00 15 1006.9
20260504001402 66 292 11.3 18.2 0.00 0.00 0.00 15 1007.0
20260504000902 66 299 9.6 18.2 0.00 0.00 0.00 14 1007.0
20260504000403 67 293 8.7 15.6 0.00 0.00 0.00 14 1007.0
20260503235901 67 290 8.7 15.6 0.00 0.00 0.00 14 1007.0
20260503235402 67 311 7.8 15.6 0.00 0.00 0.00 13 1007.0
20260503234901 68 283 8.7 15.6 0.00 0.00 0.00 14 1007.0
20260503234402 68 291 8.7 16.5 0.00 0.00 0.00 14 1007.1
20260503233900 67 299 8.7 16.5 0.00 0.00 0.00 13 1007.2
20260503233400 68 273 9.6 25.2 0.00 0.00 0.00 14 1007.3
20260503232900 68 296 9.6 25.2 0.00 0.00 0.00 13 1007.3
20260503232403 68 42 7.8 16.5 0.00 0.00 0.00 13 1007.2